Aérodrome :
LOGIN :

S'inscrire | Disclaimer

   EN    FR    IT 

 










Légende :    VFR   VFR Marginal   IFR   IFR Intensif   IFR Très Intensif
Visi : 
Plafond : 
>= 8 km
>= 3000ft
5 à 8 km
1000 à 3000 ft
1500m à 5 km
500 à 1000 ft
800 à 1500m
200 à 500 ft
< 800m
< 200 ft
Symboles :   Orages  Brouillard  Fortes neiges  Fortes précipitations  Vent > 20 kt
SIGMETs :   Divers  Orages  Givrage  Turbulence  Onde Orograph.  Cendres Volcan.







- Altitude de l'aérodrome : 93 ft
- Code IATA : XRY


LEJR - Jerez

DERNIER METAR :
  • 240000Z AUTO VRB01KT 9999 NCD 19/13 Q1018

METARs EXPIRÉS :
  • 232330Z AUTO 09001KT 9999 NCD 19/14 Q1018
  • 232300Z AUTO 00000KT 9999 NCD 20/14 Q1018
  • 232230Z AUTO VRB01KT 9999 NCD 20/14 Q1018
  • 232200Z AUTO 12003KT 9999 NCD 21/15 Q1018
  • 232130Z AUTO VRB02KT 9999 NCD 22/15 Q1018

TAF TAF LEJR
Valide du 24 à 00h jusqu'au 25 à 00h UTC


232300Z 2400/2424 VRB02KT CAVOK TX36/2415Z TN16/2406Z
PROB40
TEMPO 2404/2409 3000 BR BKN009
TEMPO 2412/2422 29010KT
Pas de NOTAMs connus pour ce terrain.



MET'MAP, la Météo Aéronautique d'un coup d'oeil ! - Copyright ORBIFLY Décembre 2007 - Disclaimer

ORBIFLY MET'MAP TEAM :

Programmation & Développement : Alexandra Zaïnal
Conception & Développement : Baudouin d'Aumeries
Co-Programmation & Développement : Marc-Olivier Méhu
Soutien technique & logistique : Manuel Goepfert

Contact : metmap@orbifly.com




SOURCES & CREDITS :

   NOAA